Durant, OK

2:50 PM CST on December 06, 2019 (GMT -0600)
Eaker

Weather History for KDUA - October, 2019

Change the Weather History Date:

Sunday, October 20, 2019

  Actual Average (KMLC) Record (KMLC)
Temperature  
Mean Temperature 69 °F -  
Max Temperature 87 °F 72 °F 87 °F (1963)
Min Temperature 51 °F 48 °F 25 °F (1989)
Cooling Degree Days 4    
Growing Degree Days 19 (Base 50)    
Moisture  
Dew Point 56 °F    
Average Humidity 64    
Maximum Humidity 94    
Minimum Humidity 25    
Precipitation  
Precipitation 0.00 in - - ()
Sea Level Pressure  
Sea Level Pressure 29.74 in    
Wind  
Wind Speed 6 mph (South)    
Max Wind Speed 23 mph    
Max Gust Speed 34 mph    
Visibility 10 miles    
Events Rain    
Averages and records for this station are not official NWS values.
T = Trace of Precipitation, MM = Missing Value Source: NWS Daily Summary

Daily Weather History Graph

Daily Weather History Graph

Search for Another Location

Airport or City:

Astronomy

Oct. 20, 2019 Rise Set
Actual Time 7:34 AM CDT 6:45 PM CDT
Civil Twilight 7:09 AM CDT 7:11 PM CDT
Nautical Twilight 6:40 AM CDT 7:40 PM CDT
Astronomical Twilight 6:11 AM CDT 8:09 PM CDT
Moon No Moon Rise 1:52 PM CDT (10/20)
Length of Visible Light 12h 01m
Length of Day
11h 11m
Waning Gibbous, 59% of the Moon is Illuminated
Oct 20
Waning Gibbous
Oct 21
Last Quarter
Oct 27
New
Nov 4
First Quarter
Nov 12
Full

Hourly Weather History & Observations

Time (CDT) Temp. Heat Index Dew Point Humidity Pressure Visibility Wind Dir Wind Speed Gust Speed Precip Events Conditions
12:36 AM 60.8 °F - 53.6 °F 77% 29.83 in 10.0 mi WSW 5.8 mph - N/A   Clear
1:16 AM 57.2 °F - 51.8 °F 82% 29.83 in 10.0 mi Calm Calm - N/A   Clear
1:36 AM 57.2 °F - 53.6 °F 88% 29.83 in 10.0 mi North 3.5 mph - N/A   Clear
1:57 AM 57.2 °F - 53.6 °F 88% 29.83 in 10.0 mi WNW 3.5 mph - N/A   Clear
2:16 AM 57.2 °F - 53.6 °F 88% 29.83 in 10.0 mi Calm Calm - N/A   Clear
2:38 AM 57.2 °F - 53.6 °F 88% 29.82 in 10.0 mi North 4.6 mph - N/A   Clear
2:58 AM 57.2 °F - 53.6 °F 88% 29.82 in 10.0 mi WSW 3.5 mph - N/A   Clear
3:16 AM 57.2 °F - 51.8 °F 82% 29.82 in 10.0 mi Calm Calm - N/A   Clear
3:58 AM 57.2 °F - 51.8 °F 82% 29.81 in 10.0 mi North 5.8 mph - N/A   Clear
4:17 AM 57.2 °F - 51.8 °F 82% 29.81 in 10.0 mi North 5.8 mph - N/A   Clear
4:37 AM 55.4 °F - 51.8 °F 88% 29.81 in 10.0 mi Calm Calm - N/A   Clear
5:17 AM 53.6 °F - 50.0 °F 88% 29.81 in 10.0 mi Calm Calm - N/A   Clear
5:38 AM 53.6 °F - 50.0 °F 88% 29.82 in 10.0 mi WSW 4.6 mph - N/A   Clear
5:56 AM 53.6 °F - 50.0 °F 88% 29.81 in 10.0 mi Calm Calm - N/A   Clear
6:18 AM 53.6 °F - 50.0 °F 88% 29.82 in 10.0 mi Calm Calm - N/A   Clear
6:37 AM 53.6 °F - 50.0 °F 88% 29.82 in 10.0 mi Calm Calm - N/A   Clear
7:18 AM 51.8 °F - 48.2 °F 88% 29.83 in 10.0 mi Calm Calm - N/A   Clear
7:58 AM 51.8 °F - 48.2 °F 88% 29.83 in 5.0 mi Calm Calm - N/A   Clear
8:36 AM 55.4 °F - 51.8 °F 88% 29.83 in 10.0 mi Calm Calm - N/A   Clear
8:58 AM 59.0 °F - 55.4 °F 88% 29.84 in 10.0 mi Calm Calm - N/A   Clear
9:18 AM 60.8 °F - 59.0 °F 94% 29.84 in 10.0 mi Calm Calm - N/A   Clear
9:37 AM 62.6 °F - 60.8 °F 94% 29.84 in 10.0 mi SE 4.6 mph - N/A   Clear
10:36 AM 69.8 °F - 57.2 °F 64% 29.83 in 10.0 mi SSE 5.8 mph - N/A   Clear
10:56 AM 73.4 °F - 57.2 °F 57% 29.83 in 10.0 mi South 8.1 mph - N/A   Clear
11:16 AM 73.4 °F - 57.2 °F 57% 29.83 in 10.0 mi South 5.8 mph - N/A   Clear
11:56 AM 77.0 °F - 55.4 °F 47% 29.81 in 10.0 mi South 6.9 mph - N/A   Clear
12:16 PM 78.8 °F - 55.4 °F 44% 29.80 in 10.0 mi South 10.4 mph - N/A   Clear
12:36 PM 78.8 °F - 55.4 °F 44% 29.79 in 10.0 mi South 8.1 mph - N/A   Clear
12:56 PM 80.6 °F 80.3 °F 53.6 °F 39% 29.78 in 10.0 mi South 9.2 mph - N/A   Clear
1:36 PM 82.4 °F - 48.2 °F 30% 29.75 in 10.0 mi South 9.2 mph - N/A   Clear
1:58 PM 84.2 °F - 48.2 °F 29% 29.73 in 10.0 mi SSE 11.5 mph 18.4 mph N/A   Clear
2:16 PM 86.0 °F - 48.2 °F 27% 29.72 in 10.0 mi South 10.4 mph 21.9 mph N/A   Clear
2:36 PM 86.0 °F - 48.2 °F 27% 29.70 in 10.0 mi SSE 13.8 mph 20.7 mph N/A   Clear
2:57 PM 87.8 °F - 48.2 °F 25% 29.69 in 10.0 mi South 10.4 mph 17.3 mph N/A   Clear
3:18 PM 87.8 °F - 48.2 °F 25% 29.68 in 10.0 mi South 15.0 mph 18.4 mph N/A   Clear
3:36 PM 87.8 °F - 48.2 °F 25% 29.67 in 10.0 mi South 17.3 mph 24.2 mph N/A   Clear
3:56 PM 87.8 °F - 51.8 °F 29% 29.67 in 10.0 mi South 15.0 mph 21.9 mph N/A   Clear
4:16 PM 87.8 °F 86.1 °F 55.4 °F 33% 29.67 in 10.0 mi South 17.3 mph 24.2 mph N/A   Clear
4:36 PM 87.8 °F 87.1 °F 59.0 °F 38% 29.67 in 10.0 mi South 15.0 mph 23.0 mph N/A   Clear
5:38 PM 86.0 °F 86.1 °F 60.8 °F 43% 29.65 in 10.0 mi South 13.8 mph 18.4 mph N/A   Clear
5:56 PM 86.0 °F 86.6 °F 62.6 °F 45% 29.64 in 10.0 mi South 12.7 mph 21.9 mph N/A   Clear
6:16 PM 84.2 °F 85.0 °F 62.6 °F 48% 29.63 in 10.0 mi South 16.1 mph - N/A   Clear
6:36 PM 84.2 °F 85.0 °F 62.6 °F 48% 29.63 in 10.0 mi South 12.7 mph 19.6 mph N/A   Clear
6:59 PM 82.4 °F 83.9 °F 64.4 °F 54% 29.63 in 10.0 mi South 18.4 mph 21.9 mph N/A   Clear
7:18 PM 82.4 °F 83.9 °F 64.4 °F 54% 29.62 in 10.0 mi South 17.3 mph - N/A   Clear
7:36 PM 80.6 °F 82.7 °F 66.2 °F 61% 29.62 in 10.0 mi South 4.6 mph 23.0 mph N/A   Clear
8:39 PM 78.8 °F - 66.2 °F 65% 29.61 in 10.0 mi SSE 17.3 mph - N/A   Clear
8:56 PM 78.8 °F - 66.2 °F 65% 29.61 in 10.0 mi South 16.1 mph - N/A   Clear
9:16 PM 78.8 °F - 68.0 °F 69% 29.59 in 10.0 mi South 16.1 mph 20.7 mph N/A   Clear
9:56 PM 78.8 °F - 69.8 °F 74% 29.55 in 7.0 mi South 13.8 mph 17.3 mph N/A Rain Light Rain
10:18 PM 78.8 °F - 68.0 °F 69% 29.56 in 10.0 mi South 23.0 mph 28.8 mph N/A   Mostly Cloudy
10:36 PM 77.0 °F - 64.4 °F 65% 29.55 in 10.0 mi South 18.4 mph 34.5 mph N/A   Scattered Clouds
10:57 PM 73.4 °F - 60.8 °F 65% 29.54 in 10.0 mi SSW 17.3 mph 27.6 mph N/A   Scattered Clouds
11:38 PM 71.6 °F - 62.6 °F 73% 29.53 in 10.0 mi South 18.4 mph 25.3 mph N/A   Clear